This is the latest recevied weather packets stored in our database for station/object LW9ERO-3. If no packets are shown the sender has not sent any weather packets the latest 10 day(s).
| Time | Temp. | Humidity | Pressure | Rain* | Wind** | Luminosity | Snow |
|---|---|---|---|---|---|---|---|
| 1787969884 | 12.78° C | 67% | 1013 hPa | 0 mm | - | - | - |
| 1787969343 | 13.33° C | 66% | 1012.8 hPa | 0 mm | - | - | - |
| 1787968803 | 13.33° C | 65% | 1012.6 hPa | 0 mm | - | - | - |
| 1787968443 | 13.33° C | 65% | 1012.6 hPa | 0 mm | - | - | - |
| 1787967904 | 13.33° C | 65% | 1012.3 hPa | 0 mm | - | - | - |
| 1787967363 | 13.33° C | 65% | 1012.3 hPa | 0 mm | - | - | - |
| 1787966823 | 13.33° C | 64% | 1012.1 hPa | 0 mm | - | - | - |
| 1787966284 | 13.33° C | 63% | 1012.2 hPa | 0 mm | - | - | - |
| 1787965743 | 13.89° C | 62% | 1012.3 hPa | 0 mm | - | - | - |
| 1787965204 | 14.44° C | 62% | 1012 hPa | 0 mm | - | - | - |
| 1787964843 | 14.44° C | 61% | 1012 hPa | 0 mm | - | - | - |
| 1787964303 | 15° C | 61% | 1012 hPa | 0 mm | - | - | - |
| 1787963763 | 15° C | 59% | 1012 hPa | 0 mm | - | - | - |
| 1787963223 | 15° C | 59% | 1012 hPa | 0 mm | - | - | - |
| 1787962683 | 15.56° C | 57% | 1011.9 hPa | 0 mm | - | - | - |
| 1787962143 | 15.56° C | 55% | 1012 hPa | 0 mm | - | - | - |
| 1787961604 | 15.56° C | 54% | 1011.9 hPa | 0 mm | - | - | - |
| 1787961243 | 16.11° C | 54% | 1011.8 hPa | 0 mm | - | - | - |
| 1787960703 | 16.11° C | 52% | 1011.8 hPa | 0 mm | - | - | - |
| 1787960163 | 16.67° C | 52% | 1011.7 hPa | 0 mm | - | - | - |
| 1787959623 | 16.67° C | 51% | 1011.8 hPa | 0 mm | - | - | - |
| 1787959083 | 16.67° C | 50% | 1011.8 hPa | 0 mm | - | - | - |
| 1787958543 | 17.22° C | 48% | 1011.6 hPa | 0 mm | - | - | - |
| 1787958004 | 17.22° C | 48% | 1011.4 hPa | 0 mm | - | - | - |
| 1787957643 | 17.78° C | 48% | 1011.5 hPa | 0 mm | - | - | - |
* Rain latest hour (hover to see other rain measurements)
** Current wind speed in m/s (hover to see current wind gust speed)